User: anonymous   Login
Location: Seasalter
(51.3333°N, 1.0167°E)
Time: 03:22:50
(UTC+00:00)
Language:

COSMOS 2428 - Orbit

View from above orbital plane
View from above orbital plane
View from above satellite
View from above satellite

Ground track
Ground track

The orbit data is extracted from the following two-line orbital elements,

1 31792U 07029A   24062.84752466  .00000134  00000-0  97990-4 0  9992
2 31792  70.9483 309.8678 0011652 209.6242 150.4221 14.12702622860103
Epoch (UTC): 02 March 2024 20:20:26
Eccentricity: 0.0011652
inclination: 70.9483°
perigee height: 842 km
apogee height: 858 km
right ascension of ascending node: 309.8678°
argument of perigee: 209.6242°
revolutions per day: 14.12702622
mean anomaly at epoch: 150.4221°
orbit number at epoch: 86010

The dashed part of the orbit path shows where the satellite is in the earth's shadow,  

DLR